www.pogodaiklimat.ru

Погода и климат >> Архив погоды >> Казахстан >> Пешной


ПОГОДА в Пешном

  • Прогноз погоды в Пешном
  • Монитор погоды в Пешном

АРХИВ ПОГОДЫ в Пешном

Время (UTC), дата Ветер
(напр.,м/с)
 
Видим.   Явления Облачность Т
(С)
Тd
(С)
f
(%)
Тe
(С)
Тes
(С)
Комфортность P
(гПа)
Po
(гПа)
Тmin
(С)
Tmax
(С)
R
(мм)
R24
(мм)
S
(см)
06 11.07 СВ 2 10 км 3/0
[Ci]
+30.7 +7.7 24 +30 +38 жарко 1007.7 1009.8 +17.1
09 11.07 Ю 4 10 км 3/3 600 м
[Cb calv]
+29.8 +20.1 56 +36 +43 очень
душно
1007.3 1009.4
12 11.07 Ю 2 10 км 6/0
[Ac cast Ci]
+29.7 +20.0 56 +36 +44 очень
душно
1006.4 1008.5
15 11.07 ЮЗ 2 10 км 4/0
[Ac lent]
+29.6 +16.1 44 +33 +34 душно 1005.8 1007.9 +32.6
18 11.07 штиль 0 н/о 3/0
[Ac cuf]
+24.0 +18.3 70 +28 +28 душно 1005.5 1007.7 +32.6
21 11.07 штиль 0 н/о ясно +21.3 +14.9 67 +24 +24 комфорт 1004.4 1006.6
00 12.07 СВ 2 н/о 4/0
[Cs]
+21.2 +13.6 62 +24 +24 комфорт 1004.2 1006.4
03 12.07 СВ 2 10 км 4/0
[Ci fib]
+25.0 +14.2 51 +27 +29 жарко 1003.6 1005.8
12 12.07 Ю 4 10 км 4/3 600 м
[Cb calv Ci]
+34.4 +15.7 33 +37 +41 очень
душно
1000.6 1002.7
18 12.07 ЮЗ 4 н/о 4/3 600 м
[Cb calv Ac cuf]
+27.2 +23.7 81 +37 +37 очень
душно
1001.5 1003.6 +36.7
21 12.07 З 2 н/о 6/3 600 м
[Cb calv Ac cuf Ci ing]
+24.7 +17.9 66 +29 +29 душно 1001.2 1003.4
00 13.07 З 6 н/о 8/8 600 м
[Cb calv]
+21.1 +17.7 81 +25 +25 комфорт 1003.4 1005.6
03 13.07 СЗ 4 10 км 6/4 600 м
[Cb calv Ac lent Ci ing]
+20.2 +16.4 79 +23 +24 комфорт 1005.0 1007.2
06 13.07 СЗ 4 10 км 6/0
[Cs]
+24.2 +16.0 60 +27 +33 жарко 1005.3 1007.5 +18.7
09 13.07 С 4 10 км 8/0
[Cs]
+28.9 +15.2 43 +31 +40 жарко 1005.3 1007.4
12 13.07 З 2 10 км 6/3 600 м
[Cb calv Cs]
+30.5 +16.3 42 +34 +40 очень
душно
1005.1 1007.2
15 13.07 С 2 10 км гроза без осадков 8/8 600 м
[Cb calv]
+29.4 +12.8 36 +31 +31 жарко 1004.8 1006.9 +32.1
18 13.07 СЗ 2 н/о {гроза} 3/0
[Ac cuf]
+23.5 +14.8 58 +26 +26 жарко 1007.2 1009.4 +32.1
21 13.07 СЗ 2 н/о 3/0
[Ci sp]
+20.2 +13.6 66 +23 +23 комфорт 1007.3 1009.5
00 14.07 С 2 н/о 3/0
[Ac cuf]
+18.3 +12.6 69 +19 +19 1007.5 1009.7
03 14.07 СЗ 2 10 км 8/3 600 м
[Cb calv Ci ing]
+20.2 +13.2 64 +23 +24 комфорт 1007.1 1009.3
06 14.07 С 4 10 км 8/0
[Ac und Cc]
+26.8 +14.3 46 +29 +33 жарко 1006.8 1008.9 +16.8
09 14.07 С 2 10 км в посл. час ливневой дождь {гроза} 10/10 600 м
[Cb calv]
+20.7 +19.1 91 +26 +26 душно 1006.8 1009.0
12 14.07 СЗ 2 20 км слаб. ливневой дождь {гроза} 10/10 600 м
[Cb calv]
+18.4 +17.4 94 +20 +20 1007.8 1010.0
15 14.07 СЗ 4 10 км {ливн. осадки} 10/8 600 м
[Cb calv Ac As]
+19.4 +16.0 81 +21 +21 комфорт 1007.6 1009.8 +28.3
18 14.07 З 4 н/о 6/0
[Ac cuf]
+18.1 +16.3 89 +18 +18 1008.1 1010.3 +28.3 24
21 14.07 З 2 н/о 1/0
[Ci]
+16.8 +14.5 86 +17 +17 1008.1 1010.6
00 15.07 З 2 н/о ясно +16.2 +13.9 86 +16 +16 1008.7 1010.9
03 15.07 штиль 0 10 км 3/0
[Ci]
+17.1 +14.4 84 +17 +19 1009.3 1011.5 +14.5
12 15.07 ЮЗ 2 10 км дым 3/3 600 м
[Cb calv]
+26.4 +16.4 54 +30 +37 душно 1009.6 1001.8
15 15.07 З 2 10 км дым 3/1 1000 м
[Cu hum Ac cuf]
+25.2 +18.3 66 +30 +32 душно 1008.9 1011.1 +26.8
18 15.07 Ю 2 н/о дым 8/0
[Ac As]
+21.8 +18.3 81 +27 +27 душно 1009.9 1012.1 +26.8
21 15.07 штиль 0 н/о дым 6/0
[Ac As]
+19.9 +18.8 93 +23 +23 комфорт 1009.7 1011.9
00 16.07 штиль 0 н/о дым 6/0
[Ac As]
+21.6 +15.6 69 +25 +25 комфорт 1009.4 1011.6
03 16.07 СВ 2 10 км дым 4/0
[Ac As]
+20.9 +17.7 82 +26 +27 душно 1009.6 1011.8
06 16.07 ЮВ 6 4000 м дым 3/0
[Ci sp]
+28.4 +14.3 42 +31 +34 душно 1009.3 1011.5 +18.7
09 16.07 ЮВ 8 10 км дым 4/0
[Ac As]
+31.3 +10.2 27 +31 +33 жарко 1009.0 1011.1
12 16.07 В 4 10 км дым 4/0
[Ac cast]
+31.8 +9.2 25 +31 +36 жарко 1007.8 1009.9
15 16.07 В 2 10 км дым 6/0
[Ac cast]
+32.5 +11.1 27 +32 +34 жарко 1006.6 1008.7 +34.3
18 16.07 СВ 2 н/о дым 8/4
[Cb calv Ac cuf]
+28.3 +14.2 42 +30 +30 жарко 1006.2 1008.3 +34.3
21 16.07 В 4 н/о дым 4/3 600 м
[Cb calv Ac cuf]
+26.5 +11.0 38 +27 +27 жарко 1005.0 1007.1
00 17.07 В 2 н/о дым 3/0
[Ac cuf]
+21.1 +11.2 53 +23 +23 комфорт 1004.6 1006.8
03 17.07 С 2 10 км дым 8/8 600 м
[Cb calv]
+24.8 +16.3 59 +28 +28 жарко 1005.8 1008.0
06 17.07 В 4 10 км дым 8/6 600 м
[Cb calv Ac As]
+27.1 +15.5 49 +30 +32 душно 1005.2 1007.3 +20.6
09 17.07 В 4 10 км дым 8/4 600 м
[Cb calv Ac cast]
+31.7 +8.1 23 +31 +34 жарко 1005.1 1007.2
12 17.07 ЮЗ 2 10 км дым ясно +31.8 +11.8 29 +32 +42 жарко 1004.4 1006.5
18 17.07 З 2 н/о 3/0
[Cs]
+26.2 +18.7 63 +31 +31 очень
душно
1004.3 1006.4 +33.5
00 18.07 штиль 0 н/о гроза, ливневой дождь 10/8 600 м
[Cb cap Ac lent]
+22.1 +17.0 73 +27 +27 душно 1005.5 1007.7
03 18.07 штиль 0 10 км в посл. час гроза {ливн. осадки} 6/4 600 м
[Cb calv Ac cast]
+21.6 +18.4 82 +26 +27 душно 1006.5 1008.7

 

Местоположение метеостанции Пешной (Атырауская область, Казахстан): широта 56.92 долгота 41.68 высота над уровнем моря -21 м.

В архиве по умолчанию представлена погода в Пешном за последнюю неделю. Архивные данные за месяц целиком и за предыдущие месяцы, начиная с января 2011 года, Вы можете получить, выбрав интересующий диапазон дат из раскрывающегося списка и нажав кнопку "Ввод!".


*Определитесь, кто Вы:
робот инопланетянин человек

Внимание! Время в таблицах - всемирное. Для получения местного времени необходимо прибавить поправку, которая равна 5 ч.

Смотрите также архив погоды в соседних городах и на ближайших метеорологических станциях:

Погода в Шуе (Ивановская область, Россия) (19 км)
Погода в Вичуге (Ивановская область, Россия) (36 км)
Погода в Иванове (Ивановская область, Россия) (43 км)
Погода в Приволжске (Ивановская область, Россия) (57 км)
Погода в Плесе (Ивановская область, Россия) (59 км)
Погода в Кинешме (Ивановская область, Россия) (63 км)
Погода в Коврове (Владимирская область, Россия) (65 км)
Погода в Тейково (Ивановская область, Россия) (70 км)
Погода в Вязниках (Владимирская область, Россия) (86 км)
Погода в Суздале (Владимирская область, Россия) (93 км)

Пояснения к столбцам:

Ветер - указаны скорость ветра в м/с - средняя за 10 мин, порывы в срок и между сроками (в фигурных скобках) и направление, откуда дует ветер: С - северный, СВ - северо-восточный, В - восточный, ЮВ - юго-восточный, Ю - южный, ЮЗ - юго-западный, З - западный, СЗ - северо-западный.
Видимость - горизонтальная дальность видимости в метрах или километрах. При видимости от 1 до 10 км при отсутствии осадков обычно наблюдается дымка, при ухудшении видимости до 1 км и менее - туман. В сухую погоду видимость может ухудшаться дымом, пылью или мглою.
Явления - указаны атмосферные явления, наблюдавшиеся в срок или в последний час перед сроком; фигурными скобками обозначены явления, наблюдавшиеся между сроками (за 1-3 часа до срока); квадратными скобками обозначены град или гололедные отложения с указанием их диаметра в мм.
Облачность - указаны через наклонную черту общая и нижняя облачность в баллах и высота нижней границы облаков в метрах; квадратными скобками обозначены формы облаков: Ci - перистые, Cs - перисто-слоистые, Cc - перисто-кучевые, Ac - высококучевые, As - высокослоистые, Sc - слоисто-кучевые, Ns - слоисто-дождевые, Cu - кучевые, Cb - кучево-дождевые. Подробнее классификацию облаков см. в Атласе облаков (PDF).
T - Температура воздуха - температура, измеренная на высоте 2 м над землей.
Td - Температура точки росы - температура, при понижении до которой содержащийся в воздухе водяной пар достигнет насыщения.
f - Относительная влажность воздуха - влажноcть воздуха, измеренная на высоте 2 м над землей.
Te - Эффективная температура - температура, которую ощущает одетый по сезону человек в тени. Характеристика душности погоды. При расчете учитывается влияние влажности воздуха и скорости ветра на теплоощущения человека.
Tes - Эффективная температура на солнце - температура, которую ощущает человек, с поправкой на солнечный нагрев. Характеристика знойности погоды. Зависит от высоты солнца над горизонтом, облачности и скорости ветра. Ночью, в пасмурную погоду, а также при ветре 12 м/с и более поправка равна нулю.
P - Атмосферное давление - приведенное к уровню моря атмосферное давление.
Po - Атмосферное давление - измеренное на уровне метеостанции атмосферное давление.
Tmin - Минимальная температура - минимум температуры воздуха на высоте 2 м над землей.
Tmax - Максимальная температура - максимум температуры воздуха на высоте 2 м над землей.
R - Количество осадков - Количество выпавших осадков за период времени, мм. При наведении курсора мыши на число - период времени, за который выпало указанное количество осадков.
R24 - Количество осадков - Количество выпавших осадков за 24 часа, мм.
S - Снежный покров - Высота снежного покрова, см. При наведении курсора мыши на число - состояние снежного покрова и степень покрытия местности в баллах.